TimeEST,TemperatureF,Dew PointF,Humidity,Sea Level PressureIn,VisibilityMPH,Wind Direction,Wind SpeedMPH,Gust SpeedMPH,PrecipitationIn,Events,Conditions,WindDirDegrees,DateUTC
12:56 AM,21.0,8.1,57,30.25,10.0,ESE,10.4,-,N/A,,Clear,120,2014-03-07 05:56:00
1:56 AM,19.9,8.1,60,30.24,10.0,ESE,9.2,-,N/A,,Clear,120,2014-03-07 06:56:00
2:56 AM,19.9,8.1,60,30.22,10.0,ESE,12.7,-,N/A,,Clear,120,2014-03-07 07:56:00
3:56 AM,19.9,8.1,60,30.21,10.0,SE,12.7,-,N/A,,Clear,130,2014-03-07 08:56:00
4:56 AM,19.9,9.0,62,30.20,10.0,ESE,12.7,-,N/A,,Clear,120,2014-03-07 09:56:00
5:56 AM,19.9,9.0,62,30.19,10.0,ESE,10.4,-,N/A,,Clear,120,2014-03-07 10:56:00
6:56 AM,21.0,10.9,65,30.20,10.0,SE,11.5,-,N/A,,Clear,130,2014-03-07 11:56:00
7:56 AM,21.9,12.0,66,30.19,10.0,SE,11.5,-,N/A,,Clear,130,2014-03-07 12:56:00
8:56 AM,26.1,14.0,60,30.19,10.0,ESE,9.2,-,N/A,,Clear,120,2014-03-07 13:56:00
9:56 AM,30.0,16.0,56,30.17,10.0,ESE,11.5,-,N/A,,Clear,120,2014-03-07 14:56:00
10:56 AM,33.1,18.0,54,30.16,10.0,SE,8.1,-,N/A,,Clear,130,2014-03-07 15:56:00
11:56 AM,36.0,19.0,50,30.13,10.0,ESE,11.5,-,N/A,,Clear,120,2014-03-07 16:56:00
12:56 PM,39.0,21.0,49,30.09,10.0,East,6.9,-,N/A,,Clear,100,2014-03-07 17:56:00
1:56 PM,43.0,23.0,45,30.04,10.0,ESE,5.8,-,N/A,,Clear,120,2014-03-07 18:56:00
2:56 PM,44.1,24.1,45,30.03,10.0,SW,4.6,-,N/A,,Clear,230,2014-03-07 19:56:00
3:56 PM,45.0,24.1,44,30.01,10.0,SE,6.9,-,N/A,,Clear,140,2014-03-07 20:56:00
4:56 PM,46.0,25.0,44,29.99,10.0,Variable,3.5,-,N/A,,Clear,0,2014-03-07 21:56:00
5:56 PM,43.0,24.1,47,29.99,10.0,Calm,Calm,-,N/A,,Clear,0,2014-03-07 22:56:00
6:56 PM,43.0,24.1,47,29.98,10.0,SSE,3.5,-,N/A,,Clear,150,2014-03-07 23:56:00
7:56 PM,39.0,24.1,55,29.98,10.0,SE,3.5,-,N/A,,Clear,140,2014-03-08 00:56:00
8:56 PM,39.9,24.1,53,29.97,10.0,SSE,3.5,-,N/A,,Clear,160,2014-03-08 01:56:00
9:56 PM,37.0,24.1,59,29.96,10.0,Calm,Calm,-,N/A,,Clear,0,2014-03-08 02:56:00
10:56 PM,36.0,24.1,62,29.95,10.0,Calm,Calm,-,N/A,,Clear,0,2014-03-08 03:56:00
11:56 PM,36.0,24.1,62,29.93,10.0,Calm,Calm,-,N/A,,Clear,0,2014-03-08 04:56:00